KE5YIM-13 Weather Reports


Display with metric or nautical units.
time (UTC)temp
F
wind
direction
speed
MPH
gust
MPH
rain 1hr
in
rain 24hr
in
rain mn
in
humidity
%
barometer
mb
20260510225514 62 65 1.0 1.0 0.00 0.00 0.00 85 1014.4
20260510225009 62 66 0.0 0.0 0.00 0.00 0.00 85 1014.3
20260510224505 62 66 0.0 0.0 0.00 0.00 0.00 85 1014.3
20260510224001 62 55 1.0 1.0 0.00 0.00 0.00 84 1014.4
20260510223500 63 139 1.0 2.0 0.00 0.00 0.00 84 1014.4
20260510222956 63 104 0.0 1.0 0.00 0.00 0.00 84 1014.5
20260510222455 64 107 1.0 2.0 0.00 0.00 0.00 83 1014.5
20260510221950 64 106 1.0 2.0 0.00 0.00 0.00 82 1014.3
20260510221446 64 126 2.0 2.0 0.00 0.00 0.00 82 1014.4
20260510220942 64 152 0.0 2.0 0.00 0.00 0.00 83 1014.4
20260510220438 63 107 1.0 2.0 0.00 0.00 0.00 83 1014.3
20260510215935 63 149 1.0 2.0 0.00 0.00 0.00 84 1014.2
20260510215432 63 107 1.0 1.0 0.00 0.00 0.00 84 1014.1
20260510214930 64 103 1.0 2.0 0.00 0.00 0.00 83 1014.1
20260510214427 64 96 0.0 1.0 0.00 0.00 0.00 83 1014.1
20260510213924 64 83 0.0 1.0 0.00 0.00 0.00 83 1014.1
20260510213420 63 94 0.0 1.0 0.00 0.00 0.00 83 1013.8
20260510212916 63 91 0.0 1.0 0.00 0.00 0.00 84 1013.8
20260510212414 63 118 1.0 1.0 0.00 0.00 0.00 84 1013.9
20260510211910 63 104 1.0 1.0 0.00 0.00 0.00 84 1013.7
20260510211408 62 84 0.0 2.0 0.00 0.00 0.00 84 1014.1
20260510210908 62 124 0.0 5.0 0.00 0.00 0.00 84 1013.8
20260510210403 63 91 0.0 3.0 0.00 0.00 0.00 84 1013.9
20260510205901 63 109 2.0 5.0 0.00 0.00 0.00 83 1013.9
20260510205357 62 108 1.0 2.0 0.00 0.00 0.00 84 1013.8
20260510204854 62 191 2.0 3.0 0.00 0.00 0.00 84 1013.7
20260510204350 62 165 2.0 3.0 0.00 0.00 0.00 84 1013.6
20260510203847 62 184 2.0 5.0 0.00 0.00 0.00 83 1013.7
20260510203345 62 120 1.0 2.0 0.00 0.00 0.00 83 1013.8
20260510202839 62 157 4.0 5.0 0.00 0.00 0.00 83 1013.9
20260510202335 62 285 3.0 3.0 0.00 0.00 0.00 84 1013.6
20260510201832 61 252 3.0 5.0 0.00 0.00 0.00 85 1013.7
20260510201329 61 111 3.0 5.0 0.00 0.00 0.00 86 1013.7
20260510200826 61 138 2.0 3.0 0.00 0.00 0.00 86 1013.7
20260510200324 60 116 1.0 2.0 0.00 0.00 0.00 87 1013.9
20260510195819 61 209 2.0 3.0 0.00 0.00 0.00 86 1013.9
20260510195316 62 143 2.0 5.0 0.00 0.00 0.00 85 1013.9
20260510194817 62 196 3.0 3.0 0.00 0.00 0.00 84 1013.9
20260510194314 62 174 4.0 5.0 0.00 0.00 0.00 83 1013.8
20260510193809 63 289 2.0 3.0 0.00 0.00 0.00 83 1013.7
20260510193304 62 240 3.0 5.0 0.00 0.00 0.00 83 1013.9
20260510192800 62 176 3.0 6.0 0.00 0.00 0.00 83 1014.1
20260510192255 62 111 1.0 5.0 0.00 0.00 0.00 84 1014.1
20260510191752 62 206 2.0 3.0 0.00 0.00 0.00 85 1014.1
20260510191248 61 72 1.0 2.0 0.00 0.00 0.00 87 1014.2
20260510190746 61 154 4.0 5.0 0.00 0.00 0.00 87 1014.3
20260510190243 61 122 3.0 3.0 0.00 0.00 0.00 86 1014.2
20260510185739 61 131 1.0 6.0 0.00 0.00 0.00 86 1014.3
20260510185237 61 118 2.0 7.0 0.00 0.00 0.00 85 1014.3
20260510184733 62 205 2.0 3.0 0.00 0.00 0.00 85 1014.3
20260510184230 63 215 2.0 5.0 0.00 0.00 0.00 84 1014.3
20260510183726 63 232 3.0 6.0 0.00 0.00 0.00 83 1014.4
20260510183221 63 162 2.0 2.0 0.00 0.00 0.00 82 1014.2
20260510182717 63 123 3.0 5.0 0.00 0.00 0.00 81 1014.3
20260510182213 64 160 4.0 6.0 0.00 0.00 0.00 80 1014.3
20260510181710 64 208 3.0 6.0 0.00 0.00 0.00 80 1014.3
20260510181207 64 129 3.0 7.0 0.00 0.00 0.00 81 1014.4
20260510180703 64 275 2.0 5.0 0.00 0.00 0.00 83 1014.3
20260510180201 63 105 1.0 2.0 0.00 0.00 0.00 82 1014.6
20260510175656 63 278 5.0 6.0 0.00 0.00 0.00 82 1014.7
20260510175152 64 170 4.0 6.0 0.00 0.00 0.00 82 1014.5
20260510174650 63 282 4.0 7.0 0.00 0.00 0.00 83 1014.6
20260510174147 62 156 3.0 5.0 0.00 0.00 0.00 84 1014.5
20260510173643 62 81 1.0 2.0 0.00 0.00 0.00 85 1014.6
20260510173139 62 312 2.0 5.0 0.00 0.00 0.00 85 1014.7
20260510172635 61 135 3.0 6.0 0.00 0.00 0.00 86 1014.6
20260510172131 60 96 2.0 5.0 0.00 0.00 0.00 87 1014.6
20260510171628 61 158 3.0 5.0 0.00 0.00 0.00 86 1014.4
20260510171126 61 176 4.0 5.0 0.00 0.00 0.00 87 1014.5
20260510170622 61 96 1.0 5.0 0.00 0.00 0.00 87 1014.5
20260510170118 60 245 3.0 5.0 0.00 0.00 0.00 88 1014.6
20260510165614 60 318 3.0 6.0 0.00 0.00 0.00 88 1014.7
20260510165110 60 116 1.0 3.0 0.00 0.00 0.00 88 1014.6
20260510164608 60 190 3.0 5.0 0.00 0.00 0.00 88 1014.6
20260510164104 60 103 2.0 5.0 0.00 0.00 0.00 88 1014.7
20260510163605 60 99 4.0 6.0 0.00 0.00 0.00 88 1014.7
20260510163101 60 109 2.0 2.0 0.00 0.00 0.00 89 1014.8
20260510162556 60 134 2.0 5.0 0.00 0.00 0.00 88 1014.8
20260510162053 60 175 3.0 9.0 0.00 0.00 0.00 89 1014.6
20260510161549 60 270 3.0 7.0 0.00 0.00 0.00 88 1014.5
20260510161046 60 181 2.0 6.0 0.00 0.00 0.00 88 1014.6
20260510160543 60 133 3.0 5.0 0.00 0.00 0.00 88 1014.6
20260510160042 60 109 5.0 7.0 0.00 0.00 0.00 87 1014.4
20260510155539 60 256 3.0 6.0 0.00 0.00 0.00 87 1014.5
20260510155035 59 294 3.0 3.0 0.00 0.00 0.00 87 1014.7
20260510154531 60 199 3.0 7.0 0.00 0.00 0.00 87 1014.8
20260510154026 60 280 3.0 5.0 0.00 0.00 0.00 87 1015.1
20260510153521 59 207 3.0 5.0 0.00 0.00 0.00 88 1015.0
20260510153019 59 219 2.0 3.0 0.00 0.00 0.00 89 1015.0
20260510152516 58 135 1.0 3.0 0.00 0.00 0.00 90 1015.0
20260510152012 58 111 5.0 6.0 0.00 0.00 0.00 90 1015.1
20260510151509 57 105 0.0 3.0 0.00 0.00 0.00 91 1015.3
20260510151006 57 124 2.0 3.0 0.00 0.00 0.00 92 1015.2
20260510150501 56 78 1.0 2.0 0.00 0.00 0.00 93 1015.1
20260510145957 57 126 0.0 1.0 0.00 0.00 0.00 94 1015.2
20260510145454 55 68 0.0 1.0 0.00 0.00 0.00 95 1015.3
20260510144950 55 118 1.0 3.0 0.00 0.00 0.00 96 1015.3
20260510144447 55 72 1.0 1.0 0.00 0.00 0.00 96 1015.0
20260510143943 54 75 1.0 1.0 0.00 0.00 0.00 97 1014.8
20260510143439 54 88 0.0 1.0 0.00 0.00 0.00 97 1014.7
20260510142936 54 77 0.0 1.0 0.00 0.00 0.00 97 1014.8
20260510142432 53 103 0.0 1.0 0.00 0.00 0.00 97 1014.7
20260510141929 53 88 0.0 2.0 0.00 0.00 0.00 97 1014.8
20260510141426 53 79 0.0 0.0 0.00 0.00 0.00 98 1014.9
20260510140923 53 104 0.0 2.0 0.00 0.00 0.00 98 1014.8
20260510140419 53 93 1.0 1.0 0.00 0.00 0.00 98 1014.7
20260510135919 53 97 1.0 1.0 0.00 0.00 0.00 98 1014.9
20260510135415 53 120 0.0 1.0 0.00 0.00 0.00 98 1014.9
20260510134912 53 63 0.0 1.0 0.00 0.00 0.00 98 1015.0
20260510134409 53 77 1.0 2.0 0.00 0.00 0.00 98 1014.7
20260510133905 53 111 1.0 1.0 0.00 0.00 0.00 98 1014.7
20260510133402 53 188 3.0 3.0 0.00 0.00 0.00 98 1014.7
20260510132857 53 67 0.0 2.0 0.00 0.00 0.00 99 1014.3
20260510132355 53 84 1.0 2.0 0.00 0.00 0.00 99 1014.7
20260510131851 53 94 1.0 1.0 0.00 0.00 0.00 99 1014.7
20260510131349 53 97 1.0 1.0 0.00 0.00 0.00 99 1014.7
20260510130845 53 99 1.0 2.0 0.00 0.00 0.00 99 1014.7
20260510130343 54 192 1.0 2.0 0.00 0.00 0.00 99 1014.6
20260510125839 54 81 0.0 0.0 0.00 0.00 0.00 99 1014.5
20260510125335 54 83 0.0 1.0 0.00 0.00 0.00 99 1014.4
20260510124833 53 72 0.0 1.0 0.00 0.00 0.00 99 1014.4
20260510124329 54 83 0.0 0.0 0.00 0.00 0.00 99 1014.3
20260510123825 53 82 0.0 0.0 0.00 0.00 0.00 99 1014.3
20260510123321 53 88 0.0 1.0 0.00 0.00 0.00 99 1014.2
20260510122817 53 71 0.0 1.0 0.00 0.00 0.00 99 1014.2
20260510122313 53 59 0.0 0.0 0.00 0.00 0.00 99 1014.1
20260510121810 53 85 0.0 2.0 0.00 0.00 0.00 99 1013.7
20260510121308 53 84 0.0 0.0 0.00 0.00 0.00 99 1013.9
20260510120804 53 81 0.0 1.0 0.00 0.00 0.00 99 1013.8
20260510120301 53 88 0.0 2.0 0.00 0.00 0.00 99 1014.1
20260510115757 53 88 0.0 3.0 0.00 0.00 0.00 99 1014.1
20260510115255 53 135 3.0 3.0 0.00 0.00 0.00 99 1013.7
20260510114749 53 117 1.0 3.0 0.00 0.00 0.00 99 1013.6
20260510114248 53 106 1.0 3.0 0.00 0.00 0.00 99 1013.4
20260510113748 53 195 2.0 2.0 0.00 0.00 0.00 99 1013.6
20260510113245 53 109 0.0 0.0 0.00 0.00 0.00 99 1013.4
20260510112741 53 100 1.0 1.0 0.00 0.00 0.00 99 1013.5
20260510112238 53 92 0.0 0.0 0.00 0.00 0.00 99 1013.6
20260510111734 53 71 0.0 0.0 0.00 0.00 0.00 99 1013.6
20260510111231 52 101 0.0 1.0 0.00 0.00 0.00 99 1013.7
20260510110730 52 154 3.0 3.0 0.00 0.00 0.00 99 1013.5
20260510110229 52 103 0.0 0.0 0.00 0.00 0.00 99 1013.7
20260510105728 52 84 0.0 0.0 0.00 0.00 0.00 99 1013.7
20260510105223 52 125 0.0 0.0 0.00 0.00 0.00 99 1013.5
20260510104720 51 83 0.0 0.0 0.00 0.00 0.00 99 1013.5
20260510104218 51 160 1.0 2.0 0.00 0.00 0.00 99 1013.4
20260510103714 51 97 0.0 1.0 0.00 0.00 0.00 99 1013.5
20260510103211 51 92 0.0 0.0 0.00 0.00 0.00 99 1013.2
20260510102711 51 91 0.0 0.0 0.00 0.00 0.00 99 1013.3
20260510102207 51 89 0.0 0.0 0.00 0.00 0.00 99 1013.4
20260510101705 51 86 0.0 0.0 0.00 0.00 0.00 99 1013.4
20260510101203 51 87 0.0 0.0 0.00 0.00 0.00 99 1013.2
20260510100658 51 88 0.0 0.0 0.00 0.00 0.00 99 1013.4
20260510100156 51 88 0.0 0.0 0.00 0.00 0.00 99 1013.2
20260510095651 51 90 0.0 0.0 0.00 0.00 0.00 99 1013.4
20260510095147 52 66 0.0 0.0 0.00 0.00 0.00 99 1013.4
20260510094645 52 77 0.0 0.0 0.00 0.00 0.00 99 1013.5
20260510094142 52 81 0.0 0.0 0.00 0.00 0.00 99 1013.5
20260510093638 52 81 0.0 0.0 0.00 0.00 0.00 99 1013.5
20260510093135 52 82 0.0 0.0 0.00 0.00 0.00 99 1013.5
20260510092632 52 120 0.0 0.0 0.00 0.00 0.00 99 1013.5
20260510092127 52 89 0.0 0.0 0.00 0.00 0.00 99 1013.4
20260510091623 52 76 0.0 0.0 0.00 0.00 0.00 99 1013.5
20260510091119 52 76 0.0 0.0 0.00 0.00 0.00 99 1013.5
20260510090617 52 76 0.0 0.0 0.00 0.00 0.00 99 1013.5
20260510090112 52 76 0.0 0.0 0.00 0.00 0.00 99 1013.7
20260510085608 52 76 0.0 0.0 0.00 0.00 0.00 99 1013.5
20260510085103 52 78 0.0 0.0 0.00 0.00 0.00 99 1013.5
20260510084600 52 84 0.0 0.0 0.00 0.00 0.00 99 1013.6
20260510084057 52 84 0.0 0.0 0.00 0.00 0.00 99 1013.6
20260510083553 52 85 0.0 0.0 0.00 0.00 0.00 99 1013.2
20260510083049 52 76 0.0 0.0 0.00 0.00 0.00 99 1013.6
20260510082547 52 47 0.0 0.0 0.00 0.00 0.00 99 1013.2
20260510082042 52 74 0.0 0.0 0.00 0.00 0.00 99 1012.9
20260510081537 52 85 0.0 0.0 0.00 0.00 0.00 99 1012.7
20260510081033 52 85 0.0 0.0 0.00 0.00 0.00 99 1012.8
20260510080532 52 86 0.0 0.0 0.00 0.00 0.00 99 1012.6
20260510080030 52 80 0.0 0.0 0.00 0.00 0.00 99 1012.7
20260510075527 52 78 0.0 0.0 0.00 0.00 0.00 99 1012.5
20260510075024 52 78 0.0 0.0 0.00 0.00 0.00 99 1012.7
20260510074522 52 78 0.0 0.0 0.00 0.00 0.00 99 1012.8
20260510074022 52 78 0.0 0.0 0.00 0.00 0.00 99 1012.6
20260510073518 52 78 0.0 0.0 0.00 0.00 0.00 99 1012.5
20260510073015 52 78 0.0 0.0 0.00 0.00 0.00 99 1012.6
20260510072512 52 78 0.0 0.0 0.00 0.00 0.00 99 1012.8
20260510072007 52 78 0.0 0.0 0.00 0.00 0.00 99 1012.9
20260510071504 52 78 0.0 0.0 0.00 0.00 0.00 99 1012.8
20260510071002 52 79 0.0 0.0 0.00 0.00 0.00 99 1012.8
20260510070459 52 79 0.0 0.0 0.00 0.00 0.00 99 1012.8
20260510065954 52 79 0.0 0.0 0.00 0.00 0.00 99 1012.9
20260510065452 52 79 0.0 0.0 0.00 0.00 0.00 99 1012.7
20260510064947 52 79 0.0 0.0 0.00 0.00 0.00 99 1012.9
20260510064445 52 79 0.0 0.0 0.00 0.00 0.00 99 1012.8
20260510063942 52 78 0.0 0.0 0.00 0.00 0.00 99 1012.9
20260510063437 52 83 0.0 0.0 0.00 0.00 0.00 99 1012.8
20260510062937 52 79 0.0 0.0 0.00 0.00 0.00 99 1012.6
20260510062436 52 84 0.0 0.0 0.00 0.00 0.00 99 1012.5
20260510061932 52 84 0.0 0.0 0.00 0.00 0.00 99 1012.6
20260510061429 52 72 0.0 0.0 0.00 0.00 0.00 99 1012.6
20260510060925 52 86 0.0 0.0 0.00 0.00 0.00 99 1012.5
20260510060422 52 88 0.0 0.0 0.00 0.00 0.00 99 1012.6
20260510055918 53 85 0.0 0.0 0.00 0.00 0.00 99 1012.5
20260510055414 53 83 0.0 0.0 0.00 0.00 0.00 99 1012.6
20260510054913 53 83 0.0 0.0 0.00 0.00 0.00 99 1012.7
20260510054408 53 80 0.0 0.0 0.00 0.00 0.00 99 1012.6
20260510053903 53 80 0.0 0.0 0.00 0.00 0.00 99 1012.6
20260510053358 53 81 0.0 0.0 0.00 0.00 0.00 99 1012.8
20260510052855 53 79 0.0 0.0 0.00 0.00 0.00 99 1012.6
20260510052351 53 79 0.0 0.0 0.00 0.00 0.00 99 1012.8
20260510051847 53 79 0.0 0.0 0.00 0.00 0.00 99 1013.0
20260510051344 53 79 0.0 0.0 0.00 0.00 0.00 99 1012.9
20260510050841 53 79 0.0 0.0 0.00 0.00 0.00 99 1012.7
20260510050337 53 80 0.0 0.0 0.00 0.00 0.00 99 1012.8
20260510045834 53 79 0.0 0.0 0.00 0.00 0.00 99 1012.8
20260510045331 53 79 0.0 0.0 0.00 0.00 0.00 99 1012.9
20260510044829 53 79 0.0 0.0 0.00 0.00 0.00 99 1012.8
20260510044325 53 79 0.0 0.0 0.00 0.00 0.00 99 1013.0
20260510043822 53 88 0.0 0.0 0.00 0.00 0.00 99 1012.8
20260510043318 53 88 0.0 0.0 0.00 0.00 0.00 99 1012.7
20260510042815 53 79 0.0 0.0 0.00 0.00 0.00 99 1012.6
20260510042311 53 86 0.0 0.0 0.00 0.00 0.00 99 1012.5
20260510041808 53 85 0.0 0.0 0.00 0.00 0.00 99 1012.4
20260510041305 53 90 0.0 2.0 0.00 0.00 0.00 99 1012.4
20260510040803 53 111 0.0 1.0 0.00 0.00 0.00 99 1012.5
20260510040259 53 122 1.0 1.0 0.00 0.00 0.00 99 1012.5
20260510035754 53 79 0.0 0.0 0.00 0.57 0.57 99 1012.3
20260510035250 53 79 0.0 0.0 0.00 0.57 0.57 99 1012.3
20260510034746 53 86 0.0 0.0 0.00 0.57 0.57 99 1012.3
20260510034245 53 74 0.0 0.0 0.00 0.57 0.57 99 1012.4
20260510033740 53 74 0.0 0.0 0.00 0.57 0.57 99 1012.4
20260510033238 53 74 0.0 0.0 0.00 0.57 0.57 99 1012.2
20260510032734 53 74 0.0 0.0 0.00 0.57 0.57 99 1012.3
20260510032230 53 73 0.0 0.0 0.00 0.57 0.57 99 1012.3
20260510031725 53 73 0.0 0.0 0.00 0.57 0.57 99 1012.3
20260510031222 53 73 0.0 0.0 0.00 0.57 0.57 99 1012.5
20260510030721 53 74 0.0 0.0 0.00 0.57 0.57 99 1012.8
20260510030219 53 75 0.0 0.0 0.00 0.57 0.57 99 1012.6
20260510025716 53 75 0.0 0.0 0.00 0.57 0.57 99 1012.6
20260510025213 53 77 0.0 0.0 0.00 0.57 0.57 99 1012.5
20260510024710 53 71 0.0 0.0 0.00 0.57 0.57 99 1012.6
20260510024207 53 71 0.0 0.0 0.00 0.57 0.57 99 1012.7
20260510023702 53 81 0.0 0.0 0.00 0.57 0.57 99 1012.5
20260510023159 53 81 0.0 0.0 0.00 0.57 0.57 99 1012.7
20260510022655 53 75 0.0 0.0 0.00 0.57 0.57 99 1012.6
20260510022150 53 82 0.0 0.0 0.00 0.57 0.57 99 1012.7
20260510021646 53 76 0.0 0.0 0.00 0.57 0.57 99 1012.7
20260510021144 53 76 0.0 0.0 0.00 0.57 0.57 99 1012.5
20260510020638 53 76 0.0 0.0 0.00 0.57 0.57 99 1012.6
20260510020133 53 76 0.0 0.0 0.00 0.57 0.57 99 1012.4
20260510015629 53 77 0.0 0.0 0.00 0.57 0.57 99 1012.6
20260510015126 53 77 0.0 0.0 0.00 0.57 0.57 99 1012.7
20260510014621 53 83 0.0 0.0 0.00 0.57 0.57 99 1012.7
20260510014119 53 81 0.0 0.0 0.00 0.57 0.57 99 1012.6
20260510013619 53 81 0.0 0.0 0.00 0.57 0.57 99 1012.4
20260510013115 53 154 1.0 2.0 0.00 0.57 0.57 99 1012.3
20260510012614 53 81 0.0 1.0 0.00 0.57 0.57 99 1012.6
20260510012111 53 92 0.0 0.0 0.00 0.57 0.57 99 1012.5
20260510011610 53 76 0.0 3.0 0.00 0.57 0.57 99 1012.6
20260510011106 53 89 0.0 0.0 0.00 0.57 0.57 99 1012.3
20260510010603 53 79 0.0 0.0 0.00 0.57 0.57 99 1012.4
20260510010100 53 88 0.0 0.0 0.00 0.57 0.57 99 1012.4
20260510005555 53 93 0.0 2.0 0.00 0.57 0.57 99 1012.5
20260510005054 54 185 0.0 0.0 0.00 0.57 0.57 99 1012.2
20260510004551 54 85 0.0 0.0 0.00 0.57 0.57 99 1012.2
20260510004049 53 87 0.0 0.0 0.00 0.57 0.57 99 1012.2
20260510003546 53 87 0.0 0.0 0.00 0.57 0.57 99 1012.2
20260510003041 54 96 0.0 0.0 0.00 0.57 0.57 99 1012.1
20260510002536 54 91 0.0 0.0 0.00 0.57 0.57 99 1012.2
20260510002034 54 84 0.0 0.0 0.00 0.57 0.57 99 1012.1
20260510001531 54 80 0.0 0.0 0.00 0.57 0.57 99 1012.0
20260510001029 54 81 0.0 0.0 0.00 0.57 0.57 99 1012.0
20260510000524 54 92 0.0 0.0 0.00 0.57 0.57 99 1011.9
20260510000021 54 82 0.0 0.0 0.00 0.57 0.57 99 1011.9
20260509235518 54 64 0.0 0.0 0.00 0.57 0.57 99 1011.7
20260509235015 53 74 0.0 0.0 0.00 0.57 0.57 99 1011.6
20260509234511 53 78 0.0 0.0 0.00 0.57 0.57 99 1011.8
20260509234009 53 27 2.0 3.0 0.00 0.57 0.57 99 1011.8
20260509233506 53 74 1.0 3.0 0.00 0.57 0.57 99 1011.4
20260509233003 53 94 0.0 3.0 0.05 0.57 0.57 99 1012.0
20260509232500 53 232 4.0 5.0 0.05 0.57 0.57 98 1012.1
20260509231956 53 196 4.0 7.0 0.00 0.56 0.56 98 1012.0
20260509231453 54 92 0.0 2.0 0.00 0.56 0.56 98 1012.1
20260509230951 54 87 0.0 0.0 0.07 0.56 0.56 98 1012.2
20260509230447 54 97 0.0 1.0 0.14 0.56 0.56 98 1012.5
20260509225944 54 87 0.0 0.0 0.19 0.55 0.55 98 1012.6